• In Uzbekistan
  • List of Countries
  • For 7 days
  • Water Temperature
  • Satellite Maps
  • Weather Map
  • Weather Widgets
  • user-avatar
    Login

    Hourly Weather Lyubar

    Today, 27 May, Monday

    Time Temperature Precipitation Wind Pressure Humidity
    00:00 +14°C° 0 mm 2 mps 739 mmHg 92%
    01:00 +14°C° 0 mm 2 mps 739 mmHg 93%
    02:00 +13°C° 0 mm 3 mps 739 mmHg 94%
    03:00 +13°C° 0.2 mm 3 mps 739 mmHg 93%
    04:00 +13°C° 0.2 mm 3 mps 739 mmHg 93%
    05:00 +13°C° 0.2 mm 3 mps 739 mmHg 93%
    06:00 +16°C° 0 mm 3 mps 739 mmHg 89%
    07:00 +18°C° 0 mm 3 mps 740 mmHg 85%
    08:00 +20°C° 0 mm 3 mps 740 mmHg 81%
    09:00 +21°C° 0.3 mm 3 mps 740 mmHg 75%
    10:00 +22°C° 0.3 mm 4 mps 740 mmHg 69%
    11:00 +25°C° 0.3 mm 4 mps 740 mmHg 64%
    12:00 +25°C° 0.2 mm 4 mps 740 mmHg 63%
    13:00 +26°C° 0.2 mm 4 mps 740 mmHg 62%
    14:00 +26°C° 0.2 mm 4 mps 739 mmHg 61%
    15:00 +26°C° 0.2 mm 4 mps 739 mmHg 63%
    16:00 +26°C° 0.2 mm 3 mps 739 mmHg 66%
    17:00 +26°C° 0.2 mm 3 mps 739 mmHg 69%
    18:00 +24°C° 0 mm 3 mps 739 mmHg 73%
    19:00 +22°C° 0 mm 3 mps 739 mmHg 78%
    20:00 +20°C° 0 mm 3 mps 738 mmHg 83%
    21:00 +19°C° 0 mm 3 mps 738 mmHg 86%
    22:00 +18°C° 0 mm 3 mps 738 mmHg 89%
    23:00 +18°C° 0 mm 3 mps 738 mmHg 91%

    Tomorrow, 28 May, Tuesday

    Time Temperature Precipitation Wind Pressure Humidity
    00:00 +18°C° 0 mm 4 mps 738 mmHg 88%
    01:00 +17°C° 0 mm 5 mps 738 mmHg 85%
    02:00 +17°C° 0 mm 5 mps 738 mmHg 82%
    03:00 +16°C° 0 mm 5 mps 738 mmHg 80%
    04:00 +16°C° 0 mm 6 mps 738 mmHg 78%
    05:00 +16°C° 0 mm 6 mps 737 mmHg 76%
    06:00 +17°C° 0 mm 6 mps 737 mmHg 74%
    07:00 +17°C° 0 mm 7 mps 737 mmHg 73%
    08:00 +18°C° 0 mm 7 mps 737 mmHg 71%
    09:00 +20°C° 0 mm 8 mps 737 mmHg 69%
    10:00 +21°C° 0 mm 8 mps 737 mmHg 67%
    11:00 +23°C° 0 mm 8 mps 737 mmHg 66%
    12:00 +23°C° 0 mm 8 mps 737 mmHg 65%
    13:00 +24°C° 0 mm 9 mps 737 mmHg 65%
    14:00 +24°C° 0 mm 9 mps 736 mmHg 64%
    15:00 +24°C° 0 mm 8 mps 736 mmHg 66%
    16:00 +24°C° 0 mm 7 mps 736 mmHg 68%
    17:00 +24°C° 0 mm 7 mps 736 mmHg 70%
    18:00 +23°C° 0 mm 6 mps 735 mmHg 72%
    19:00 +21°C° 0 mm 6 mps 735 mmHg 73%
    20:00 +20°C° 0 mm 6 mps 735 mmHg 75%
    21:00 +19°C° 0.1 mm 6 mps 735 mmHg 75%
    22:00 +17°C° 0.1 mm 6 mps 735 mmHg 76%
    23:00 +16°C° 0.1 mm 6 mps 736 mmHg 76%

    Day after tomorrow, 29 May, Wednesday

    Time Temperature Precipitation Wind Pressure Humidity
    00:00 +16°C° 0 mm 6 mps 735 mmHg 78%
    01:00 +16°C° 0 mm 6 mps 735 mmHg 79%
    02:00 +15°C° 0 mm 6 mps 735 mmHg 81%
    03:00 +15°C° 0 mm 6 mps 736 mmHg 84%
    04:00 +15°C° 0 mm 6 mps 736 mmHg 86%
    05:00 +15°C° 0 mm 5 mps 736 mmHg 89%
    06:00 +16°C° 0 mm 5 mps 736 mmHg 87%
    07:00 +17°C° 0 mm 5 mps 736 mmHg 85%
    08:00 +19°C° 0 mm 5 mps 737 mmHg 84%
    09:00 +20°C° 0 mm 4 mps 737 mmHg 81%
    10:00 +21°C° 0 mm 4 mps 737 mmHg 79%
    11:00 +22°C° 0 mm 4 mps 737 mmHg 77%
    12:00 +23°C° 0.3 mm 4 mps 737 mmHg 76%
    13:00 +25°C° 0.3 mm 4 mps 737 mmHg 75%
    14:00 +25°C° 0.3 mm 4 mps 737 mmHg 73%
    15:00 +25°C° 3.1 mm 4 mps 737 mmHg 77%
    16:00 +24°C° 3.1 mm 3 mps 737 mmHg 80%
    17:00 +22°C° 3.1 mm 3 mps 737 mmHg 83%
    18:00 +21°C° 1.6 mm 2 mps 737 mmHg 83%
    19:00 +20°C° 1.6 mm 2 mps 737 mmHg 83%
    20:00 +20°C° 1.6 mm 1 mps 737 mmHg 83%
    21:00 +20°C° 0.1 mm 1 mps 737 mmHg 84%
    22:00 +20°C° 0.1 mm 1 mps 737 mmHg 86%
    23:00 +19°C° 0.1 mm 1 mps 737 mmHg 87%

    30 May, Thursday

    Time Temperature Precipitation Wind Pressure Humidity
    00:00 +19°C° 0.1 mm 1 mps 738 mmHg 89%
    01:00 +19°C° 0.1 mm 1 mps 738 mmHg 90%
    02:00 +18°C° 0.1 mm 1 mps 738 mmHg 92%
    03:00 +18°C° 0 mm 1 mps 738 mmHg 93%
    04:00 +18°C° 0 mm 1 mps 738 mmHg 95%
    05:00 +16°C° 0 mm 1 mps 738 mmHg 96%
    06:00 +17°C° 0 mm 2 mps 738 mmHg 94%
    07:00 +18°C° 0 mm 2 mps 739 mmHg 92%
    08:00 +19°C° 0 mm 2 mps 739 mmHg 90%
    09:00 +19°C° 0 mm 3 mps 739 mmHg 90%
    10:00 +19°C° 0 mm 3 mps 739 mmHg 90%
    11:00 +19°C° 0 mm 3 mps 740 mmHg 89%
    12:00 +19°C° 0 mm 3 mps 740 mmHg 89%
    13:00 +19°C° 0 mm 3 mps 740 mmHg 89%
    14:00 +18°C° 0 mm 4 mps 740 mmHg 88%
    15:00 +18°C° 0 mm 3 mps 740 mmHg 88%
    16:00 +18°C° 0 mm 3 mps 740 mmHg 87%
    17:00 +18°C° 0 mm 3 mps 740 mmHg 87%
    18:00 +18°C° 0 mm 3 mps 740 mmHg 89%
    19:00 +17°C° 0 mm 3 mps 740 mmHg 91%
    20:00 +17°C° 0 mm 2 mps 741 mmHg 93%
    21:00 +16°C° 0 mm 2 mps 741 mmHg 94%
    22:00 +16°C° 0 mm 2 mps 741 mmHg 94%
    23:00 +16°C° 0 mm 2 mps 741 mmHg 95%

    31 May, Friday

    Time Temperature Precipitation Wind Pressure Humidity
    00:00 +16°C° 0 mm 3 mps 741 mmHg 95%
    01:00 +16°C° 0 mm 3 mps 741 mmHg 94%
    02:00 +16°C° 0 mm 3 mps 741 mmHg 94%
    03:00 +16°C° 0.2 mm 3 mps 741 mmHg 95%
    04:00 +16°C° 0.2 mm 3 mps 741 mmHg 95%
    05:00 +16°C° 0.2 mm 3 mps 740 mmHg 96%
    06:00 +17°C° 0.1 mm 3 mps 740 mmHg 95%
    07:00 +17°C° 0.1 mm 3 mps 740 mmHg 95%
    08:00 +17°C° 0.1 mm 3 mps 740 mmHg 95%
    09:00 +18°C° 0 mm 3 mps 740 mmHg 92%
    10:00 +19°C° 0 mm 3 mps 740 mmHg 90%
    11:00 +20°C° 0 mm 4 mps 740 mmHg 88%
    12:00 +21°C° 0 mm 4 mps 740 mmHg 85%
    13:00 +22°C° 0 mm 3 mps 739 mmHg 81%
    14:00 +24°C° 0 mm 3 mps 739 mmHg 78%
    15:00 +24°C° 0.6 mm 3 mps 739 mmHg 79%
    16:00 +24°C° 0.6 mm 3 mps 739 mmHg 79%
    17:00 +24°C° 0.6 mm 3 mps 738 mmHg 79%
    18:00 +22°C° 0.6 mm 3 mps 738 mmHg 83%
    19:00 +21°C° 0.6 mm 2 mps 738 mmHg 87%
    20:00 +20°C° 0.6 mm 2 mps 738 mmHg 90%
    21:00 +20°C° 0 mm 1 mps 738 mmHg 91%
    22:00 +20°C° 0 mm 1 mps 738 mmHg 92%
    23:00 +19°C° 0 mm 1 mps 737 mmHg 93%

    1 June, Saturday

    Time Temperature Precipitation Wind Pressure Humidity
    00:00 +19°C° 0.2 mm 1 mps 737 mmHg 94%
    01:00 +18°C° 0.2 mm 1 mps 737 mmHg 94%
    02:00 +18°C° 0.2 mm 1 mps 737 mmHg 95%
    03:00 +18°C° 0.6 mm 1 mps 737 mmHg 96%
    04:00 +18°C° 0.6 mm 1 mps 737 mmHg 96%
    05:00 +17°C° 0.6 mm 2 mps 737 mmHg 97%
    06:00 +18°C° 0.1 mm 2 mps 737 mmHg 95%
    07:00 +19°C° 0.1 mm 2 mps 737 mmHg 93%
    08:00 +20°C° 0.1 mm 2 mps 737 mmHg 91%
    09:00 +21°C° 1.7 mm 2 mps 737 mmHg 87%
    10:00 +22°C° 1.7 mm 3 mps 737 mmHg 83%
    11:00 +24°C° 1.7 mm 3 mps 737 mmHg 78%
    12:00 +25°C° 0.9 mm 4 mps 737 mmHg 79%
    13:00 +25°C° 0.9 mm 4 mps 737 mmHg 79%
    14:00 +25°C° 0.9 mm 4 mps 737 mmHg 79%
    15:00 +23°C° 1.5 mm 4 mps 737 mmHg 83%
    16:00 +21°C° 1.5 mm 4 mps 737 mmHg 88%
    17:00 +20°C° 1.5 mm 3 mps 737 mmHg 93%
    18:00 +20°C° 0.6 mm 3 mps 737 mmHg 94%
    19:00 +19°C° 0.6 mm 3 mps 737 mmHg 95%
    20:00 +19°C° 0.6 mm 3 mps 737 mmHg 95%
    21:00 +18°C° 0 mm 3 mps 737 mmHg 96%
    22:00 +18°C° 0 mm 3 mps 737 mmHg 96%
    23:00 +17°C° 0 mm 3 mps 737 mmHg 96%
    Show more